Regional Weather Roundup
Issued by NWS

Home | Current Version | Previous Version | Text Only | Print | Product List | Glossary On
Versions: 1 2 3 4 5 6 7 8 9 10 11 12 13 14 15 16 17 18 19 20 21 22 23 24 25 26 27 28 29 30 31 32 33 34 35 36 37 38 39 40 41 42 43 44 45 46 47 48 49 50
000
ASUS44 KOUN 250810
RWROK

WEATHER ROUNDUP FOR OKLAHOMA
NATIONAL WEATHER SERVICE NORMAN OK
300 AM CDT WED MAY 25 2016

NOTE: "FAIR" INDICATES FEW OR NO CLOUDS BELOW 12,000 FEET WITH NO
      SIGNIFICANT WEATHER AND/OR OBSTRUCTIONS TO VISIBILITY.

OKZ001>007-009>012-014-015-017-250900-
NORTHWEST OKLAHOMA AND THE PANHANDLE

CITY           SKY/WX    TMP DP  RH WIND       PRES   REMARKS
GAGE           CLEAR     73  69  87 S21G31    29.78F
GUYMON         CLEAR     61  57  87 S7        29.80R
ENID/WOODRING  CLOUDY    68  66  94 SE13      29.80S
$$

OKZ016-021>023-033>039-044-045-250900-
SOUTHWEST OKLAHOMA

CITY           SKY/WX    TMP DP  RH WIND       PRES   REMARKS
LAWTON/REGL    CLOUDY    76  72  87 S12       29.84F
LAWTON/FT SILL MOCLDY    76  75  97 S13       29.84S
FREDERICK      CLEAR     75  73  93 S17       29.81F
CLINTON        MOCLDY    74  70  87 S18G26    29.84F
HOBART         CLOUDY    74  71  91 S18G26    29.83F
ALTUS AFB      MOCLDY    74  71  90 SE13      29.82F
$$

OKZ018>020-024>031-250900-
CENTRAL OKLAHOMA

CITY           SKY/WX    TMP DP  RH WIND       PRES   REMARKS
OKLAHOMA CITY  CLOUDY    76  72  87 S13G21    29.86F
OKC/WILEY POST PTCLDY    76  71  85 S22G30    29.84F
STILLWATER     CLOUDY    67  65  93 S15       29.83F
GUTHRIE        CLEAR     68  66  93 SE12      29.83F
$$

OKZ008-013-054>072-250900-
NORTHEAST OKLAHOMA

CITY           SKY/WX    TMP DP  RH WIND       PRES   REMARKS
TULSA          CLOUDY    70  64  81 S24G30    29.85R
TULSA/JONES    CLOUDY    70  67  90 S12G20    29.87S
PONCA CITY     CLOUDY    71  62  73 MISG      29.87R
BARTLESVILLE   CLOUDY    71  67  87 S5        29.88R
MUSKOGEE       TSTM      66  64  93 W13       30.04R VSB 3/4
$$

OKZ032-040>043-046>053-073>077-250900-
SOUTH CENTRAL/SOUTHEAST OKLAHOMA

CITY           SKY/WX    TMP DP  RH WIND       PRES   REMARKS
ARDMORE/DWNTWN CLOUDY    77  72  83 S10G16    29.89S
MCALESTER      CLOUDY    72  66  81 S7        29.92R THUNDER
$$





USA.gov is the U.S. government's official web portal to all federal, state and local government web resources and services.